Terug naar catalogus

JCSAT 17

ActiefCommunicatieGEO
NORAD 45245·PAYLOAD·🇯🇵 Japan

Gelanceerd Feb 18, 2020 vanaf Guiana Space Centre

Loading…

TLE

VersSource: Space-Track

Epoch: Sep 14, 2026, 12:44 UTC

1 45245U 20013A   26257.53084872 -.00000323  00000-0  00000-0 0  9994
2 45245   5.3975 357.6952 0004269 177.5746 145.3231  1.00271427 24128

Volg JCSAT 17 in realtime met AllMySat

Download on the App Store